This demonstration page uses our WeatherBlox Daily Observations layout. Learn more.

Left ArrowRight Arrow

Hourly Observations for February 7, 2018

Temp ( °F °C ) Dew Point ( °F °C ) Humidity (%) Winds ( mph kmh ) Pressure ( in mb ) Visibility ( mi km ) Precip ( " mm )
12:53 am 00:53 Mostly Clear 3 -16.1 -2 -18.9 79 79 WSW 8 13 30.43 1031 10 16 0.00 0.00
1:53 am 01:53 Mostly Cloudy 9 -12.8 3 -16.1 77 77 WNW 12 19 30.43 1031 10 16 0.00 0.00
2:53 am 02:53 Mostly Cloudy 8 -13.3 2 -16.7 76 76 WNW 12 19 30.45 1031 10 16 0.00 0.00
3:53 am 03:53 Cloudy 14 -10 9 -12.8 80 80 NW 12 19 30.46 1032 10 16 0.00 0.00
4:53 am 04:53 Partly Cloudy 11 -11.7 6 -14.4 81 81 NNW 10 17 30.49 1032 10 16 0.00 0.00
5:53 am 05:53 Partly Cloudy 7 -13.9 3 -16.1 84 84 NNW 9 15 30.51 1033 10 16 0.00 0.00
6:53 am 06:53 Cloudy 12 -11.1 7 -13.9 80 80 N 14 22 30.52 1034 10 16 0.00 0.00
7:53 am 07:53 Mostly Sunny 6 -14.4 3 -16.1 87 87 N 6 9 30.55 1035 10 16 0.00 0.00
8:53 am 08:53 Cloudy 10 -12.2 5 -15 80 80 N 7 11 30.57 1035 10 16 0.00 0.00
9:53 am 09:53 Cloudy 12 -11.1 6 -14.4 77 77 N 7 11 30.58 1036 10 16 0.00 0.00
10:53 am 10:53 Cloudy 14 -10 7 -13.9 73 73 N 7 11 30.58 1036 10 16 0.00 0.00
11:53 am 11:53 Cloudy 13 -10.6 7 -13.9 77 77 WNW 3 6 30.57 1035 9 14 0.00 0.03
12:53 pm 12:53 Cloudy 14 -10 8 -13.3 77 77 W 5 7 30.55 1034 10 16 0.00 0.00
1:53 pm 13:53 Cloudy 16 -8.9 8 -13.3 71 71 SW 5 7 30.49 1033 10 16 0.00 0.00
2:53 pm 14:53 Partly Cloudy 17 -8.3 8 -13.3 68 68 VRB 3 6 30.46 1031 10 16 0.00 0.00
3:53 pm 15:53 Sunny 17 -8.3 9 -12.8 70 70 SSW 7 11 30.44 1031 10 16 0.00 0.00
4:53 pm 16:53 Cloudy 18 -7.8 9 -12.8 68 68 S 7 11 30.42 1030 10 16 0.00 0.00
5:53 pm 17:53 Cloudy 18 -7.8 11 -11.7 74 74 S 8 13 30.40 1030 10 16 0.00 0.00
6:53 pm 18:53 Partly Cloudy 19 -7.2 11 -11.7 71 71 SSW 8 13 30.39 1029 10 16 0.00 0.00
7:53 pm 19:53 Clear 17 -8.3 10 -12.2 74 74 S 6 9 30.40 1030 10 16 0.00 0.00
8:53 pm 20:53 Clear 16 -8.9 10 -12.2 77 77 S 7 11 30.41 1030 10 16 0.00 0.00
9:53 pm 21:53 Clear 16 -8.9 11 -11.7 80 80 S 8 13 30.40 1029 10 16 0.00 0.00
10:53 pm 22:53 Mostly Clear 16 -8.9 11 -11.7 80 80 S 9 15 30.39 1029 10 16 0.00 0.00
11:53 pm 23:53 Cloudy 17 -8.3 12 -11.1 80 80 S 9 15 30.38 1029 10 16 0.00 0.00

Powered by AerisWeather